Theta_e
323 326 327 329 331 332 332 332 331 330 328 327 327 327 325 324 321 321 324 323 324 325 329 332 332 334 335 333 332 330 326 326 326 322 323 324 323 325 326 328 328 326 323
317 319 323 326 327 328 328 328 327 326 325 324 325 324 322 321 321 323 321 321 323 326 328 330 331 332 333 332 329 328 326 325 327 320 320 315 319 323 324 326 325 322 319
310 312 315 319 322 323 324 324 323 323 323 321 320 319 320 321 319 318 319 319 320 323 327 330 332 332 332 329 328 326 325 322 325 324 320 313 312 318 323 322 317 316 313
310 310 311 312 314 315 318 318 319 319 319 319 317 318 316 315 318 319 320 316 316 318 319 323 325 326 324 324 323 320 322 322 319 322 322 323 320 313 311 317 312 310 306
305 305 306 308 310 313 316 317 315 315 317 316 316 317 317 319 319 318 315 314 313 313 312 313 315 317 317 317 317 317 318 319 319 316 316 317 319 319 315 310 306 304 300
302 304 306 306 306 309 310 311 312 313 315 314 314 315 316 317 316 314 313 312 311 309 309 309 311 312 313 313 312 312 312 313 314 315 314 313 312 312 312 310 310 306 297
303 304 304 305 306 308 308 308 309 309 311 311 311 312 314 316 315 314 313 311 308 306 305 306 307 307 307 307 307 307 307 307 308 308 309 308 308 307 308 308 307 307 298
304 304 305 306 306 306 306 307 307 307 308 307 308 310 313 316 316 315 312 310 308 307 304 303 304 302 302 302 303 303 303 303 304 303 304 303 302 302 302 303 303 302 303
303 305 306 306 306 306 305 305 305 305 305 305 306 308 309 312 312 312 311 309 307 302 301 300 300 300 300 300 301 301 300 301 301 300 300 299 297 298 298 298 300 300 297
303 303 305 306 306 305 304 304 304 304 304 303 304 304 306 308 309 308 306 305 302 299 299 298 298 298 298 298 299 299 299 298 298 298 296 296 295 294 294 294 293 294 295
302 304 305 305 305 305 304 303 303 303 303 302 302 302 303 303 304 303 303 301 300 298 297 297 296 296 296 296 297 297 296 296 295 294 294 292 292 291 290 290 290 289 290
303 304 304 305 305 305 304 303 303 302 302 302 301 300 300 300 300 300 300 299 297 296 296 296 295 294 294 294 294 294 294 293 291 291 291 288 288 288 289 289 288 288 287
302 303 304 304 305 305 304 303 302 301 302 300 299 298 298 297 297 297 297 296 295 294 294 294 293 293 293 292 293 293 291 291 290 290 289 287 287 286 286 287 286 286 285
303 303 304 304 306 305 304 303 303 302 301 300 298 297 296 296 296 296 295 294 294 293 293 293 292 292 291 290 290 290 289 289 288 288 287 287 286 286 286 284 285 284 284
301 302 302 303 304 305 305 304 303 303 301 298 297 296 296 295 294 293 293 292 292 292 292 291 290 289 289 288 288 287 287 286 285 286 285 285 284 283 284 284 283 283 283
300 301 301 302 302 302 303 303 303 301 301 298 296 296 294 293 292 291 290 289 289 289 289 288 288 287 287 289 289 287 286 285 284 283 283 281 281 281 281 281 282 281 281
296 297 297 298 300 302 302 302 302 302 299 297 296 294 293 291 290 290 289 287 287 287 287 287 287 286 286 288 288 287 285 284 284 282 281 280 280 281 279 280 280 280 280
295 296 297 297 298 299 299 300 301 300 297 295 294 294 292 291 290 288 287 286 286 285 285 286 286 285 286 286 287 286 284 283 283 282 281 279 279 280 279 278 277 277 277
295 296 297 296 296 296 297 296 296 296 296 294 293 293 291 290 288 286 286 286 285 285 285 285 285 284 284 286 287 284 282 281 281 281 281 280 279 280 280 277 276 276 275
294 293 293 293 293 294 292 290 291 291 292 292 291 291 290 289 288 287 286 286 285 284 284 284 285 284 284 286 286 284 281 279 279 279 279 280 279 280 279 277 276 274 274
292 292 291 290 290 290 288 286 288 288 290 287 287 287 287 286 287 286 285 284 284 283 282 282 283 284 284 285 286 285 280 279 278 277 277 278 280 280 279 277 275 275 275
289 289 287 287 287 288 285 284 285 286 284 284 284 283 283 284 284 284 283 283 283 281 281 281 281 282 283 285 286 285 282 282 279 277 277 277 279 279 278 276 275 275 274
286 286 285 283 285 286 283 282 283 282 281 280 280 280 280 282 282 283 282 281 281 281 280 280 280 280 281 282 285 285 283 282 279 279 279 279 280 279 277 276 275 273 270
284 283 282 281 281 283 283 282 281 280 279 279 280 280 279 280 280 281 282 281 280 280 280 280 279 279 279 281 282 282 282 280 280 279 278 278 278 277 275 273 273 271 270
281 280 279 278 279 280 280 281 280 278 277 278 278 278 279 279 279 279 280 280 281 282 281 281 281 279 277 279 282 281 280 278 277 276 275 275 273 271 269 269 269 268 266
277 277 277 277 276 276 276 277 277 276 275 276 277 277 278 277 278 278 278 281 282 282 284 284 282 281 281 282 283 283 282 280 279 273 273 272 270 269 269 268 267 267 266
Wind_Speed
10 11 12 13 13 13 13 13 11 11 8 7 7 7 8 7 6 5 5 6 7 8 8 7 9 8 7 8 6 5 4 5 2 4 5 4 4 3 3 3 4 5 9
13 12 13 12 13 14 14 12 13 12 10 8 7 6 6 5 5 3 4 5 5 7 7 8 7 8 6 6 4 5 4 1 2 3 3 3 0 3 3 3 4 9 6
16 15 14 14 13 13 13 12 13 12 12 11 7 5 3 3 4 5 5 4 4 3 5 7 6 5 4 4 4 2 4 3 1 2 3 2 2 2 5 6 8 6 6
17 15 14 12 10 9 8 10 11 11 11 12 9 11 9 9 7 6 4 4 3 2 1 1 1 1 1 2 2 1 1 1 3 2 4 4 3 2 2 5 6 5 7
9 11 12 10 11 9 8 8 11 12 13 12 12 9 10 6 2 3 5 5 4 3 3 3 3 4 3 3 3 3 2 1 2 2 1 4 4 5 4 4 3 4 5
4 6 6 5 6 6 6 8 11 12 11 11 12 12 10 8 6 6 6 5 5 4 4 4 4 4 4 4 4 4 3 3 2 2 3 3 2 2 3 3 4 5 4
6 6 8 7 7 6 7 7 9 11 9 9 10 10 10 9 9 7 5 6 5 4 5 5 4 4 4 3 3 3 3 2 2 1 1 0 1 2 2 3 4 2 3
4 5 6 6 7 7 7 7 7 9 7 8 10 8 8 5 5 6 6 5 5 5 6 4 3 4 4 4 3 3 3 3 2 4 3 2 1 0 1 2 2 3 4
3 5 5 6 6 6 5 6 7 7 6 8 7 5 5 6 6 6 5 5 4 5 6 6 6 5 5 4 5 3 4 4 3 3 4 3 3 1 1 1 1 3 2
6 7 6 7 5 4 4 4 6 7 7 6 5 5 5 5 6 6 6 5 5 7 7 7 6 6 5 5 5 4 4 5 3 3 5 4 3 3 2 2 1 1 2
5 6 5 5 4 4 5 5 7 8 7 7 7 7 6 7 6 6 7 7 7 7 8 8 7 7 7 6 5 5 5 5 4 3 4 4 4 3 3 2 1 2 1
4 5 5 5 5 5 5 6 7 8 7 7 6 7 7 8 9 9 9 8 9 8 7 7 7 7 6 6 6 6 5 5 5 5 4 4 3 4 3 2 2 2 2
8 10 11 9 8 7 6 7 8 9 8 8 9 10 10 10 10 9 8 8 7 7 8 8 8 8 7 7 6 6 6 6 6 6 6 6 6 5 3 3 3 3 2
13 15 15 14 10 6 9 9 9 9 10 10 11 11 11 10 8 8 8 9 9 9 9 9 8 7 7 7 6 6 7 6 6 5 5 5 5 5 6 4 4 3 3
16 15 15 15 15 13 10 9 10 10 11 12 12 14 10 10 10 11 11 10 9 8 8 8 7 7 7 6 8 8 8 7 7 6 5 4 6 9 5 3 4 3 3
16 16 17 18 17 15 13 13 10 10 11 12 14 11 9 11 11 10 11 10 10 9 8 9 9 9 7 11 14 10 8 8 8 8 7 8 8 8 9 8 9 5 2
16 14 14 15 17 17 16 14 13 11 8 12 12 11 11 12 12 11 10 11 11 9 10 10 10 10 9 14 16 13 7 7 8 8 8 8 5 8 8 9 10 9 9
14 13 13 14 12 12 13 14 11 10 7 11 11 11 11 12 10 11 12 12 10 11 9 10 9 8 8 15 17 14 8 7 7 8 9 9 9 8 8 9 8 8 6
13 12 12 13 13 11 8 10 11 11 10 11 12 11 11 12 12 14 14 12 11 11 10 9 10 9 7 17 19 15 7 7 8 7 8 8 9 13 13 8 8 8 8
11 12 13 13 12 11 11 10 8 8 10 10 10 7 7 9 11 11 10 9 9 9 8 9 10 11 10 20 22 17 7 9 7 7 7 9 10 16 14 7 8 8 9
11 12 13 13 12 10 9 12 13 10 7 4 7 7 7 9 9 8 8 9 9 8 9 10 9 10 11 16 23 23 9 8 8 8 7 7 15 16 12 8 5 6 9
12 12 13 13 12 10 9 12 12 10 9 8 8 6 4 4 4 5 5 7 9 9 9 9 8 8 10 15 23 24 17 15 9 9 7 8 18 16 12 7 7 9 7
11 10 11 15 14 10 5 13 13 9 10 7 9 7 4 5 4 5 5 6 8 8 9 9 9 8 8 8 23 24 20 16 9 7 11 15 19 17 11 10 9 7 3
11 10 11 14 16 12 11 10 12 10 10 11 9 4 6 4 5 4 5 6 6 6 6 7 8 7 8 9 10 10 12 13 10 12 9 12 14 13 10 7 7 5 4
10 10 11 13 15 14 14 13 11 9 10 9 8 5 4 5 5 5 7 7 6 9 7 8 8 9 10 11 17 16 11 10 11 9 8 7 6 7 6 5 6 4 3
12 11 12 13 14 15 16 14 11 9 9 10 7 6 5 4 4 5 4 11 13 14 17 15 12 6 11 18 24 25 24 23 23 8 8 8 7 7 7 7 6 6 7
Wind_Direction
237 240 229 226 223 229 229 229 228 220 218 211 210 217 215 213 219 220 239 258 257 255 255 252 245 241 227 231 223 221 250 268 329 301 279 316 280 8 24 54 86 89 70
240 231 237 234 231 233 230 234 230 226 215 214 209 227 216 216 223 192 217 244 256 254 255 246 251 248 234 229 205 218 258 265 227 293 327 290 91 124 96 84 91 86 90
253 248 232 224 236 235 240 232 233 231 220 219 213 208 228 214 201 204 210 208 238 239 248 251 254 262 261 218 205 236 263 283 223 285 295 282 263 2 121 75 61 70 85
249 258 267 280 263 240 255 248 240 232 225 212 212 215 214 219 213 200 182 177 201 211 248 254 283 159 236 146 124 82 280 200 230 103 244 254 266 278 221 103 72 68 73
285 296 295 286 272 284 273 240 240 233 219 214 217 219 226 237 209 165 175 186 169 167 151 147 154 158 148 125 148 151 155 190 240 166 321 259 266 245 247 260 128 90 76
305 285 285 297 284 281 276 262 248 238 230 221 220 229 228 222 200 197 192 187 178 168 168 164 158 154 143 156 153 149 153 155 176 193 212 256 306 320 298 269 273 135 117
284 290 284 280 279 272 264 260 248 238 221 221 232 228 235 234 219 207 202 180 178 187 178 173 165 161 147 138 140 131 120 122 150 166 148 321 296 340 299 283 273 266 140
299 304 305 298 295 300 290 269 251 252 221 222 224 225 232 239 222 214 207 191 186 180 147 160 148 136 140 140 132 121 121 127 139 154 169 152 139 223 292 285 321 256 171
332 321 328 331 327 317 304 284 262 247 229 233 235 229 228 223 219 209 200 191 168 147 165 163 162 164 162 164 162 155 155 159 159 150 162 156 144 121 99 23 246 249 281
335 343 345 351 348 328 303 255 246 238 228 224 223 230 221 219 215 198 197 185 176 168 169 171 174 171 170 173 177 169 173 173 164 165 171 154 144 127 110 121 129 224 269
5 6 355 348 331 309 283 252 231 227 220 216 213 213 211 207 201 200 199 194 180 178 180 181 182 183 184 185 191 185 180 185 166 162 165 148 151 142 130 109 107 98 309
349 5 349 319 290 272 264 259 246 239 225 220 221 223 215 205 205 206 198 189 191 187 186 184 187 190 192 190 197 191 186 182 173 168 154 152 153 137 134 135 117 113 38
317 311 310 315 291 272 251 241 237 235 228 227 222 222 217 210 210 206 198 193 198 189 193 191 196 196 195 195 198 194 186 185 177 174 179 166 171 159 152 146 141 129 132
308 307 308 311 307 270 255 240 234 224 222 218 216 224 225 218 216 210 203 198 200 197 197 199 199 194 187 191 182 186 183 177 174 163 167 166 177 167 166 160 157 152 148
298 302 309 308 302 296 275 251 248 227 216 221 223 224 211 210 207 204 196 197 203 207 198 191 194 186 191 191 179 184 179 169 164 161 158 160 95 75 74 165 149 164 158
318 330 326 320 314 306 297 281 261 242 219 221 228 231 217 203 206 207 204 195 195 194 189 191 190 192 198 186 189 180 178 172 172 165 149 133 120 120 116 99 73 57 170
340 335 333 329 328 324 315 295 278 269 230 231 232 224 216 212 205 200 201 205 199 189 195 193 195 196 196 186 193 188 178 174 178 168 161 157 155 154 142 134 120 102 85
329 325 323 323 324 319 317 317 311 294 251 244 242 234 220 220 212 204 203 202 195 194 193 196 195 197 198 187 190 182 180 180 181 173 173 170 165 180 167 163 157 146 134
323 314 313 314 309 307 309 312 305 293 278 266 252 236 217 221 212 211 208 204 195 192 192 186 186 190 189 185 187 180 182 178 178 177 181 176 173 170 179 170 166 156 133
312 313 315 314 312 326 327 305 281 281 282 282 275 262 244 232 225 217 213 208 201 195 184 182 185 184 186 188 187 181 173 179 175 171 178 179 178 171 177 184 175 173 165
308 317 319 308 313 326 322 307 301 286 278 267 273 267 245 232 229 215 199 191 191 183 186 182 184 183 193 182 188 188 182 181 176 174 176 183 185 178 178 195 194 188 131
322 325 319 318 324 319 316 308 303 314 319 308 282 244 231 242 222 206 185 187 188 186 186 183 183 187 188 188 192 191 192 186 180 178 176 175 181 175 176 167 172 149 126
313 314 315 314 317 321 309 311 312 316 306 298 289 278 218 191 184 196 195 189 194 196 193 191 189 186 183 191 192 194 195 196 180 174 177 173 177 172 175 171 180 134 156
313 317 313 311 307 319 316 298 304 303 299 294 289 261 278 221 176 194 190 203 205 211 215 205 195 183 180 186 186 188 188 193 185 174 172 177 174 156 146 157 179 170 188
314 316 308 304 302 313 312 312 311 310 298 291 290 282 263 249 250 213 186 204 208 204 204 210 203 191 192 194 188 180 174 174 169 154 158 170 152 147 147 180 169 171 173
315 312 309 306 308 312 309 313 317 308 297 292 283 267 253 243 240 236 225 225 222 217 224 215 207 207 203 197 196 187 181 174 170 155 165 170 171 178 179 180 177 183 194